Weather History for Wautoma, WI

Change the Weather History Date:

Monday, January 21, 2013

  Actual Average (KPCZ) Record (KPCZ)
Temperature  
Mean Temperature -2 °F -  
Max Temperature 4 °F 26 °F 44 °F (1964)
Min Temperature -8 °F 9 °F -24 °F (1963)
Degree Days  
Heating Degree Days 67    
Moisture  
Dew Point -12 °F    
Average Humidity 65    
Maximum Humidity 78    
Minimum Humidity 51    
Precipitation  
Precipitation 0.00 in - - ()
Sea Level Pressure  
Sea Level Pressure 30.20 in    
Wind  
Wind Speed 13 mph (WNW)    
Max Wind Speed 20 mph    
Max Gust Speed 29 mph    
Visibility 8 miles    
Events Snow    
Averages and records for this station are not official NWS values.
T = Trace of Precipitation, MM = Missing Value Source: NWS Daily Summary

Daily Weather History Graph

Daily Weather History Graph

Search for Another Location

Airport:

Trip Planner

Search our weather history database for the weather conditions in past years. The results will help you decide how hot, cold, wet, or windy it might be!

Date:

Astronomy

Jan. 21, 2013 Rise Set
Actual Time 7:24 AM CST 4:52 PM CST
Civil Twilight 6:53 AM CST 5:24 PM CST
Nautical Twilight 6:17 AM CST 5:59 PM CST
Astronomical Twilight 5:43 AM CST 6:34 PM CST
Moon 12:32 PM CST 2:53 AM CST
Length of Visible Light 10h 31m
Length of Day
9h 28m
Waxing Gibbous, 75% of the Moon is Illuminated
Jan 21
Waxing Gibbous
Jan 26
Full
Feb 3
Last Quarter
Feb 10
New
Feb 17
First Quarter

Hourly Weather History & Observations

Time (CST) Temp. Windchill Dew Point Humidity Pressure Visibility Wind Dir Wind Speed Gust Speed Precip Events Conditions
12:56 AM 4.1 °F -12.0 °F -2.9 °F 73% 30.20 in 10.0 mi WNW 11.5 mph 18.4 mph N/A   Overcast
1:10 AM 3.2 °F -10.3 °F -2.2 °F 78% 30.14 in 8.0 mi NW 8.1 mph - 0.00 in Snow Light Snow
1:22 AM 3.2 °F -13.9 °F -2.2 °F 78% 30.14 in 10.0 mi WNW 12.7 mph - 0.00 in   Scattered Clouds
1:56 AM 3.0 °F -12.5 °F -6.0 °F 66% 30.19 in 10.0 mi WNW 10.4 mph - 0.00 in   Scattered Clouds
2:56 AM 2.1 °F -7.4 °F -6.9 °F 66% 30.18 in 10.0 mi WNW 4.6 mph - N/A   Clear
3:56 AM 1.0 °F -11.7 °F -6.9 °F 69% 30.17 in 10.0 mi West 6.9 mph - N/A   Partly Cloudy
4:56 AM 1.0 °F -17.3 °F -6.0 °F 72% 30.17 in 10.0 mi WNW 13.8 mph - N/A   Clear
5:56 AM -0.9 °F -22.4 °F -8.0 °F 72% 30.17 in 10.0 mi WNW 18.4 mph 24.2 mph 0.00 in   Clear
6:47 AM -2.2 °F -20.7 °F -9.4 °F 71% 30.13 in 8.0 mi WNW 12.7 mph - N/A   Mostly Cloudy
6:56 AM -1.8 °F -20.2 °F -8.9 °F 72% 30.19 in 4.0 mi WNW 12.7 mph - 0.00 in Snow Light Snow
6:58 AM -2.2 °F -22.9 °F -9.4 °F 71% 30.13 in 2.5 mi WNW 16.1 mph - 0.00 in Snow Light Snow
7:08 AM -2.2 °F -19.9 °F -7.6 °F 78% 30.13 in 1.5 mi WNW 11.5 mph 19.6 mph 0.00 in Snow Light Snow
7:26 AM -2.2 °F -19.9 °F -9.4 °F 71% 30.14 in 2.5 mi WNW 11.5 mph 18.4 mph 0.00 in Snow Light Snow
7:38 AM -2.2 °F -24.7 °F -9.4 °F 71% 30.14 in 3.0 mi WNW 19.6 mph 24.2 mph 0.00 in Snow Light Snow
7:44 AM -4.0 °F -25.8 °F -11.2 °F 71% 30.15 in 6.0 mi NW 17.3 mph 24.2 mph 0.00 in Snow Light Snow
7:56 AM -4.0 °F -24.5 °F -11.9 °F 69% 30.21 in 10.0 mi WNW 15.0 mph - 0.00 in   Mostly Cloudy
8:13 AM -4.0 °F -23.7 °F -13.0 °F 65% 30.16 in 10.0 mi NW 13.8 mph 24.2 mph 0.00 in   Scattered Clouds
8:56 AM -4.0 °F -25.2 °F -13.0 °F 65% 30.17 in 1.8 mi WNW 16.1 mph 19.6 mph N/A Snow Light Snow
9:01 AM -4.0 °F -25.2 °F -11.2 °F 71% 30.17 in 1.2 mi WNW 16.1 mph 19.6 mph 0.00 in Snow Light Snow
9:06 AM -5.8 °F -28.2 °F -11.2 °F 77% 30.17 in 2.0 mi WNW 17.3 mph 23.0 mph 0.00 in Snow Light Snow
9:14 AM -5.8 °F -29.4 °F -13.0 °F 71% 30.18 in 10.0 mi WNW 19.6 mph 25.3 mph 0.00 in Snow Light Snow
9:33 AM -4.0 °F -23.7 °F -16.6 °F 55% 30.18 in 10.0 mi NW 13.8 mph - 0.00 in   Scattered Clouds
9:56 AM -4.0 °F -27.0 °F -15.9 °F 57% 30.25 in 10.0 mi NW 19.6 mph 26.5 mph 0.00 in   Partly Cloudy
10:56 AM -2.9 °F -24.4 °F -13.9 °F 59% 30.25 in 10.0 mi WNW 17.3 mph - N/A   Scattered Clouds
11:56 AM -2.2 °F -24.1 °F -14.8 °F 55% 30.17 in 10.0 mi NW 18.4 mph 26.5 mph N/A   Partly Cloudy
12:56 PM -1.8 °F -23.6 °F -13.9 °F 57% 30.22 in 10.0 mi WNW 18.4 mph 24.2 mph N/A   Mostly Cloudy
1:56 PM -0.9 °F -23.0 °F -13.9 °F 54% 30.21 in 10.0 mi West 19.6 mph 23.0 mph N/A   Scattered Clouds
2:56 PM -2.2 °F -24.1 °F -14.8 °F 55% 30.16 in 10.0 mi West 18.4 mph 28.8 mph N/A   Mostly Cloudy
3:03 PM -2.2 °F -22.2 °F -14.8 °F 55% 30.17 in 10.0 mi NW 15.0 mph 23.0 mph N/A   Scattered Clouds
3:56 PM -2.9 °F -23.8 °F -17.0 °F 51% 30.24 in 10.0 mi NW 16.1 mph 26.5 mph N/A   Clear
4:56 PM -4.0 °F -23.0 °F -17.0 °F 54% 30.25 in 10.0 mi WNW 12.7 mph 20.7 mph N/A   Partly Cloudy
5:56 PM -4.9 °F -20.1 °F -15.9 °F 59% 30.27 in 10.0 mi WNW 8.1 mph - N/A   Clear
6:56 PM -4.9 °F -20.1 °F -15.9 °F 59% 30.28 in 10.0 mi NW 8.1 mph - N/A   Clear
7:56 PM -6.0 °F -22.6 °F -15.9 °F 62% 30.29 in 10.0 mi NW 9.2 mph - N/A   Clear
8:56 PM -6.9 °F -25.7 °F -17.0 °F 62% 30.31 in 10.0 mi NW 11.5 mph - N/A   Clear
9:56 PM -6.9 °F -23.7 °F -17.0 °F 62% 30.32 in 10.0 mi WNW 9.2 mph - N/A   Clear
10:56 PM -8.0 °F -23.9 °F -17.0 °F 65% 30.34 in 10.0 mi NW 8.1 mph - N/A   Clear
11:56 PM -8.9 °F -22.1 °F -17.0 °F 68% 30.33 in 10.0 mi NW 5.8 mph - N/A   Clear